sat.trackr.live / text

‹ back to catalog

STARLINK-5316

NORAD 55305 · 2023-010AN

PAYLOAD ACTIVE UNKNOWN

§ Identity

Operator
Country
US
Launch date
2023-01-19
Launch site
AFWTR
Launch vehicle
Mass (kg)
RCS (m²)

Purposes: comms

External: N2YO · Heavens-Above · Gunter

§ Orbital elements

Epoch: 2026-09-20T05:20:04.327584Z

Period
96.11 min
Inclination
69.9981°
Eccentricity
0.0003567
Mean motion
14.98331886 rev/d
Perigee alt
569.6 km
Apogee alt
574.5 km
Semi-major
6,950.2 km
B*
1.0993e-5
RAAN
254.1536°
Arg perigee
271.2552°
Mean anomaly
88.8198°
Rev number
20,241

§ Raw data

STARLINK-53161 55305U 23010AN  26263.22227231  .00000038  00000+0  10993-4 0  99902 55305  69.9981 254.1536 0003567 271.2552  88.8198 14.98331886202415

JSON: /api/v1/satellites/55305 · /tle

For live sub-satellite position, see the globe view (requires WebGL).

§ Visibility from observer

Set your observer location to see the next 7 days of passes ≥ 10°. The values pass through the URL so the page stays shareable.

No JS? Fill the form by hand. The geolocation button needs JavaScript.